Zurück zum Katalog

STARLINK-3225

AktivKommunikationVLEO
NORAD 49737·PAYLOAD·🇺🇸 United States

Gestartet Dec 2, 2021 von Cape Canaveral Space Force Station

Loading…

Nächste Überflüge (nächste 24 Stunden)

TLE

AktuellSource: CelesTrak SupGP

Epoche: Sep 14, 2026, 14:26 UTC

1 49737C 21115P   26257.60187500 -.00008168  00000+0 -28214-3 0  2570
2 49737  53.1602  16.7049 0001298  83.1856 117.0264 15.29401019    11

Verfolge STARLINK-3225 in Echtzeit mit AllMySat

Download on the App Store